Location: Unspecified
(0.0000°N, 0.0000°E)
Time: 06:21:22
(UTC+00:00)

Vanguard 2 Rocket - Pass Details

Date: 09 October 2022
Orbit: 555 x 3321 km, 32.9° (Epoch: 06 December)

Event Time Altitude Azimuth Distance (km) Brightness Sun altitude
Rises 16:13:58 0° 229° (SW) 5,758 11.9 23.2°
Reaches altitude 10° 16:17:15 10° 227° (SW) 5,052 11.7 22.3°
Maximum altitude 16:33:36 74° 143° (SE) 3,247 9.9 18.3°
Drops below altitude 10° 16:54:03 10° 60° (ENE) 6,129 10.6 13.2°
Sets 16:58:29 0° 59° (ENE) 6,983 10.8 12.1°
